STARLINK-34493

导读

STARLINK-34493是美国SpaceX公司星链(Starlink)星座的成员卫星,于2025年6月23日发射入轨,运行在低地球轨道(LEO)。星链星座旨在为全球提供高速低延迟宽带互联网服务,尤其覆盖基础设施缺乏的偏远区域。STARLINK-34493的入轨进一步拓展了星链网络规模,助力实现更稳定的全球覆盖,为用户提供高速网络连接。

基本信息
目录编号:
64472
目录名称:
STARLINK-34493
国际标识:
2025-133A
轨道中心:
EARTH
卫星名称:
STARLINK-34493
卫星全名:
STARLINK-34493
卫星状态:
在轨 (已飞行355 天)
发射日期:
2025-06-23 UTC
国别 :
美国 (US)
星等 :
--
轨道信息
数据来源 国际轨道数据
星历时间: 2026-06-13T16:46:19+0800
12小时前
查看轨道信息
半长轴: 6853.282km
偏心率: 0.0001333
轨道倾角: 53.161°
近地点辐角 72.844°
升交点赤经 32.625°
平近点角 287.271°
近地点: 474.231km
远地点: 476.059km
周期: 94.104分钟
每日圈数: 15.302238
详细信息
使用方式:
暂无
2D轨道图
3D轨道图
轨道高度分析图
轨道倾角分析图
轨道综合分析图
查看轨道综合分析图